TimePDT,TemperatureF,Dew PointF,Humidity,Sea Level PressureIn,VisibilityMPH,Wind Direction,Wind SpeedMPH,Gust SpeedMPH,PrecipitationIn,Events,Conditions,WindDirDegrees,DateUTC
12:53 AM,30.0,12.9,49,30.36,10.0,Calm,Calm,-,N/A,,Clear,0,2012-10-06 07:53:00
1:53 AM,28.0,12.0,51,30.37,10.0,Calm,Calm,-,N/A,,Clear,0,2012-10-06 08:53:00
2:53 AM,30.9,12.9,47,30.36,10.0,NE,4.6,-,N/A,,Clear,40,2012-10-06 09:53:00
3:53 AM,32.0,12.9,45,30.35,10.0,Calm,Calm,-,N/A,,Clear,0,2012-10-06 10:53:00
4:53 AM,36.0,14.0,41,30.35,10.0,Calm,Calm,-,N/A,,Clear,0,2012-10-06 11:53:00
5:53 AM,30.9,12.9,47,30.37,10.0,Calm,Calm,-,N/A,,Clear,0,2012-10-06 12:53:00
6:53 AM,33.1,12.9,43,30.38,10.0,Calm,Calm,-,N/A,,Clear,0,2012-10-06 13:53:00
7:53 AM,35.1,16.0,46,30.40,10.0,Calm,Calm,-,N/A,,Clear,0,2012-10-06 14:53:00
8:53 AM,45.0,16.0,31,30.39,8.0,East,9.2,-,N/A,,Clear,100,2012-10-06 15:53:00
9:53 AM,50.0,16.0,26,30.39,7.0,ESE,9.2,-,N/A,,Clear,110,2012-10-06 16:53:00
10:53 AM,52.0,15.1,23,30.38,8.0,ESE,10.4,-,N/A,,Clear,110,2012-10-06 17:53:00
11:53 AM,54.0,12.9,20,30.36,9.0,ESE,8.1,-,N/A,,Clear,120,2012-10-06 18:53:00
12:53 PM,57.0,15.1,19,30.35,10.0,Variable,3.5,-,N/A,,Clear,0,2012-10-06 19:53:00
1:53 PM,57.9,15.1,19,30.33,10.0,Calm,Calm,-,N/A,,Clear,0,2012-10-06 20:53:00
2:53 PM,60.1,15.1,17,30.30,9.0,Variable,3.5,-,N/A,,Clear,0,2012-10-06 21:53:00
3:53 PM,61.0,15.1,17,30.28,9.0,South,3.5,-,N/A,,Clear,180,2012-10-06 22:53:00
4:53 PM,61.0,15.1,17,30.26,9.0,Variable,3.5,-,N/A,,Clear,0,2012-10-06 23:53:00
5:53 PM,57.9,15.1,19,30.27,7.0,NNW,5.8,-,N/A,,Clear,330,2012-10-07 00:53:00
6:53 PM,50.0,15.1,25,30.28,10.0,Calm,Calm,-,N/A,,Clear,0,2012-10-07 01:53:00
7:53 PM,41.0,14.0,33,30.28,10.0,Calm,Calm,-,N/A,,Clear,0,2012-10-07 02:53:00
8:53 PM,37.9,14.0,38,30.27,10.0,Calm,Calm,-,N/A,,Clear,0,2012-10-07 03:53:00
9:53 PM,35.1,12.9,40,30.26,10.0,Calm,Calm,-,N/A,,Clear,0,2012-10-07 04:53:00
10:53 PM,36.0,14.0,41,30.25,8.0,Calm,Calm,-,N/A,,Clear,0,2012-10-07 05:53:00
11:53 PM,34.0,15.1,46,30.25,10.0,Calm,Calm,-,N/A,,Clear,0,2012-10-07 06:53:00